User: anonymous   Login
Location: Mentone
(34.5413°N, 85.5351°W)
Time: 15:52:53
(UTC-06:00)
Language:

AO-Echo - Orbit

View from above orbital plane
View from above orbital plane
View from above satellite
View from above satellite

Ground track
Ground track

The orbit data is extracted from the following two-line orbital elements,

1 28375U 04025K   14330.84743860  .00000291  00000-0  99157-4 0    07
2 28375 098.2705 272.3729 0082279 220.0376 139.4731 14.41510724547337
Epoch (UTC): 26 November 2014 20:20:18
Eccentricity: 0.0082279
inclination: 98.2705°
perigee height: 695 km
apogee height: 812 km
right ascension of ascending node: 272.3729°
argument of perigee: 220.0376°
revolutions per day: 14.41510724
mean anomaly at epoch: 139.4731°
orbit number at epoch: 54733

The dashed part of the orbit path shows where the satellite is in the earth's shadow,  

DLR